When you browse on this site, cookies collect data to enhance your experience and personalize the content and advertising you see.
Visit our Privacy Policy to learn more. By continuing to use the site, you agree to this use of cookies and data.
  • In Schweiz
  • Länderverzeichnis
  • Für 7 Tage
  • Wassertemperatur
  • Satellitenkarten
  • Wetterkarte
  • Widgets
  • user-avatar
    Anmelden

    Stündliche Wetter Lututow

    Heute, 27 Mai, Montag

    Zeit Temperatur Niederschläge Wind Luftdruck Luftfeuchtigkeit
    00:00 +14°C° 0 mm 3 m/S 743 mmHg 85%
    01:00 +13°C° 0 mm 3 m/S 743 mmHg 87%
    02:00 +13°C° 0 mm 3 m/S 743 mmHg 89%
    03:00 +13°C° 0 mm 3 m/S 742 mmHg 91%
    04:00 +12°C° 0 mm 3 m/S 742 mmHg 92%
    05:00 +14°C° 0 mm 4 m/S 742 mmHg 86%
    06:00 +17°C° 0 mm 4 m/S 742 mmHg 80%
    07:00 +18°C° 0 mm 4 m/S 742 mmHg 75%
    08:00 +20°C° 0 mm 4 m/S 742 mmHg 69%
    09:00 +21°C° 0 mm 4 m/S 742 mmHg 63%
    10:00 +23°C° 0 mm 5 m/S 742 mmHg 57%
    11:00 +25°C° 0 mm 4 m/S 741 mmHg 55%
    12:00 +25°C° 0 mm 4 m/S 741 mmHg 54%
    13:00 +26°C° 0 mm 4 m/S 741 mmHg 52%
    14:00 +25°C° 0.4 mm 3 m/S 741 mmHg 55%
    15:00 +25°C° 0.4 mm 3 m/S 741 mmHg 58%
    16:00 +25°C° 0.4 mm 3 m/S 740 mmHg 60%
    17:00 +24°C° 0.3 mm 2 m/S 740 mmHg 66%
    18:00 +23°C° 0.3 mm 2 m/S 740 mmHg 72%
    19:00 +21°C° 0.3 mm 2 m/S 740 mmHg 78%
    20:00 +20°C° 0.5 mm 2 m/S 740 mmHg 82%
    21:00 +19°C° 0.5 mm 2 m/S 739 mmHg 86%
    22:00 +18°C° 0.5 mm 3 m/S 739 mmHg 90%
    23:00 +18°C° 1 mm 3 m/S 739 mmHg 91%

    Morgen, 28 Mai, Dienstag

    Zeit Temperatur Niederschläge Wind Luftdruck Luftfeuchtigkeit
    00:00 +18°C° 1 mm 4 m/S 739 mmHg 92%
    01:00 +16°C° 1 mm 5 m/S 738 mmHg 93%
    02:00 +17°C° 1.2 mm 4 m/S 738 mmHg 93%
    03:00 +15°C° 1.2 mm 4 m/S 737 mmHg 93%
    04:00 +16°C° 1.2 mm 3 m/S 737 mmHg 94%
    05:00 +16°C° 0 mm 3 m/S 737 mmHg 91%
    06:00 +17°C° 0 mm 3 m/S 737 mmHg 89%
    07:00 +17°C° 0 mm 3 m/S 737 mmHg 87%
    08:00 +18°C° 0.1 mm 4 m/S 737 mmHg 84%
    09:00 +17°C° 0.1 mm 5 m/S 737 mmHg 81%
    10:00 +19°C° 0.1 mm 6 m/S 737 mmHg 78%
    11:00 +20°C° 0.3 mm 5 m/S 737 mmHg 77%
    12:00 +20°C° 0.3 mm 5 m/S 737 mmHg 76%
    13:00 +20°C° 0.3 mm 4 m/S 737 mmHg 75%
    14:00 +19°C° 0.6 mm 5 m/S 737 mmHg 79%
    15:00 +17°C° 0.6 mm 5 m/S 737 mmHg 84%
    16:00 +16°C° 0.6 mm 6 m/S 737 mmHg 89%
    17:00 +15°C° 0.3 mm 6 m/S 738 mmHg 90%
    18:00 +14°C° 0.3 mm 7 m/S 738 mmHg 91%
    19:00 +12°C° 0.3 mm 7 m/S 739 mmHg 93%
    20:00 +11°C° 1 mm 6 m/S 739 mmHg 93%
    21:00 +11°C° 1 mm 6 m/S 740 mmHg 93%
    22:00 +12°C° 1 mm 5 m/S 740 mmHg 93%
    23:00 +10°C° 0.9 mm 5 m/S 741 mmHg 92%

    übermorgen, 29 Mai, Mittwoch

    Zeit Temperatur Niederschläge Wind Luftdruck Luftfeuchtigkeit
    00:00 +10°C° 0.9 mm 5 m/S 741 mmHg 92%
    01:00 +9°C° 0.9 mm 5 m/S 742 mmHg 91%
    02:00 +8°C° 0.3 mm 5 m/S 742 mmHg 90%
    03:00 +8°C° 0.3 mm 5 m/S 743 mmHg 90%
    04:00 +7°C° 0.3 mm 5 m/S 743 mmHg 89%
    05:00 +7°C° 0 mm 4 m/S 744 mmHg 88%
    06:00 +7°C° 0 mm 4 m/S 745 mmHg 88%
    07:00 +7°C° 0 mm 4 m/S 745 mmHg 87%
    08:00 +8°C° 0 mm 4 m/S 746 mmHg 82%
    09:00 +10°C° 0 mm 4 m/S 746 mmHg 78%
    10:00 +12°C° 0 mm 4 m/S 746 mmHg 73%
    11:00 +13°C° 0 mm 4 m/S 746 mmHg 68%
    12:00 +14°C° 0 mm 4 m/S 747 mmHg 63%
    13:00 +15°C° 0 mm 4 m/S 747 mmHg 57%
    14:00 +17°C° 0 mm 4 m/S 747 mmHg 58%
    15:00 +17°C° 0 mm 4 m/S 747 mmHg 58%
    16:00 +17°C° 0 mm 4 m/S 747 mmHg 58%
    17:00 +16°C° 0 mm 3 m/S 747 mmHg 64%
    18:00 +14°C° 0 mm 3 m/S 747 mmHg 70%
    19:00 +14°C° 0 mm 2 m/S 747 mmHg 75%
    20:00 +13°C° 0 mm 2 m/S 747 mmHg 77%
    21:00 +12°C° 0 mm 2 m/S 748 mmHg 79%
    22:00 +10°C° 0 mm 2 m/S 748 mmHg 81%
    23:00 +10°C° 0 mm 2 m/S 748 mmHg 81%

    30 Mai, Donnerstag

    Zeit Temperatur Niederschläge Wind Luftdruck Luftfeuchtigkeit
    00:00 +9°C° 0 mm 2 m/S 748 mmHg 81%
    01:00 +9°C° 0 mm 2 m/S 748 mmHg 81%
    02:00 +9°C° 0 mm 2 m/S 748 mmHg 80%
    03:00 +9°C° 0 mm 2 m/S 748 mmHg 78%
    04:00 +8°C° 0 mm 2 m/S 748 mmHg 77%
    05:00 +9°C° 0 mm 2 m/S 749 mmHg 74%
    06:00 +9°C° 0 mm 2 m/S 749 mmHg 72%
    07:00 +10°C° 0 mm 2 m/S 749 mmHg 69%
    08:00 +12°C° 0 mm 2 m/S 749 mmHg 66%
    09:00 +12°C° 0 mm 2 m/S 749 mmHg 64%
    10:00 +12°C° 0 mm 1 m/S 749 mmHg 61%
    11:00 +13°C° 0 mm 1 m/S 749 mmHg 60%
    12:00 +13°C° 0 mm 1 m/S 749 mmHg 59%
    13:00 +14°C° 0 mm 1 m/S 749 mmHg 57%
    14:00 +14°C° 0 mm 1 m/S 749 mmHg 56%
    15:00 +15°C° 0 mm 1 m/S 748 mmHg 54%
    16:00 +16°C° 0 mm 1 m/S 748 mmHg 53%
    17:00 +15°C° 0 mm 1 m/S 748 mmHg 57%
    18:00 +14°C° 0 mm 1 m/S 748 mmHg 62%
    19:00 +13°C° 0 mm 1 m/S 748 mmHg 66%
    20:00 +12°C° 0 mm 2 m/S 748 mmHg 69%
    21:00 +10°C° 0 mm 2 m/S 748 mmHg 72%
    22:00 +9°C° 0 mm 2 m/S 748 mmHg 74%
    23:00 +9°C° 0 mm 3 m/S 748 mmHg 77%

    31 Mai, Freitag

    Zeit Temperatur Niederschläge Wind Luftdruck Luftfeuchtigkeit
    00:00 +9°C° 0 mm 3 m/S 747 mmHg 79%
    01:00 +8°C° 0 mm 3 m/S 747 mmHg 82%
    02:00 +8°C° 0 mm 3 m/S 746 mmHg 84%
    03:00 +8°C° 0 mm 3 m/S 746 mmHg 86%
    04:00 +8°C° 0 mm 3 m/S 746 mmHg 88%
    05:00 +10°C° 0 mm 3 m/S 746 mmHg 87%
    06:00 +12°C° 0 mm 3 m/S 745 mmHg 85%
    07:00 +14°C° 0 mm 4 m/S 745 mmHg 83%
    08:00 +17°C° 0 mm 4 m/S 745 mmHg 78%
    09:00 +18°C° 0 mm 4 m/S 744 mmHg 74%
    10:00 +20°C° 0 mm 4 m/S 744 mmHg 69%
    11:00 +19°C° 1.1 mm 6 m/S 744 mmHg 74%
    12:00 +17°C° 1.1 mm 7 m/S 745 mmHg 79%
    13:00 +15°C° 1.1 mm 9 m/S 745 mmHg 83%
    14:00 +12°C° 1.3 mm 9 m/S 746 mmHg 85%
    15:00 +9°C° 1.3 mm 8 m/S 747 mmHg 86%
    16:00 +6°C° 1.3 mm 8 m/S 749 mmHg 88%
    17:00 +6°C° 0.2 mm 7 m/S 750 mmHg 86%
    18:00 +8°C° 0.2 mm 5 m/S 750 mmHg 84%
    19:00 +9°C° 0.2 mm 3 m/S 751 mmHg 82%
    20:00 +7°C° 0 mm 4 m/S 752 mmHg 80%
    21:00 +7°C° 0 mm 4 m/S 752 mmHg 77%
    22:00 +6°C° 0 mm 5 m/S 753 mmHg 75%
    23:00 +6°C° 0 mm 4 m/S 753 mmHg 78%

    1 Juni, Samstag

    Zeit Temperatur Niederschläge Wind Luftdruck Luftfeuchtigkeit
    00:00 +5°C° 0 mm 4 m/S 753 mmHg 80%
    01:00 +4°C° 0 mm 4 m/S 754 mmHg 83%
    02:00 +4°C° 0 mm 4 m/S 754 mmHg 85%
    03:00 +4°C° 0 mm 4 m/S 754 mmHg 87%
    04:00 +3°C° 0 mm 4 m/S 754 mmHg 90%
    05:00 +5°C° 0 mm 4 m/S 754 mmHg 86%
    06:00 +6°C° 0 mm 4 m/S 755 mmHg 82%
    07:00 +8°C° 0 mm 5 m/S 755 mmHg 79%
    08:00 +9°C° 0 mm 5 m/S 755 mmHg 73%
    09:00 +10°C° 0 mm 5 m/S 755 mmHg 67%
    10:00 +13°C° 0 mm 5 m/S 755 mmHg 62%
    11:00 +13°C° 0 mm 5 m/S 755 mmHg 62%
    12:00 +13°C° 0 mm 6 m/S 755 mmHg 62%
    13:00 +13°C° 0 mm 6 m/S 755 mmHg 62%
    14:00 +13°C° 0 mm 5 m/S 755 mmHg 61%
    15:00 +13°C° 0 mm 5 m/S 755 mmHg 61%
    16:00 +13°C° 0 mm 5 m/S 755 mmHg 61%
    17:00 +12°C° 0 mm 4 m/S 755 mmHg 66%
    18:00 +12°C° 0 mm 3 m/S 755 mmHg 72%
    19:00 +11°C° 0 mm 3 m/S 756 mmHg 77%
    20:00 +10°C° 0 mm 3 m/S 756 mmHg 80%
    21:00 +9°C° 0 mm 3 m/S 756 mmHg 83%
    22:00 +7°C° 0 mm 3 m/S 756 mmHg 85%
    23:00 +7°C° 0 mm 3 m/S 756 mmHg 86%
    Mehr zeigen